Volver al catálogo

STARLINK-30142

ActivoComunicacionesVLEO
NORAD 56836·PAYLOAD·🇺🇸 United States

Lanzado Jun 4, 2023 desde Cape Canaveral Space Force Station

Loading…

Próximos Pases (próximas 24 horas)

TLE

ActualizadoSource: CelesTrak SupGP

Época: Sep 15, 2026, 02:43 UTC

1 56836C 23079P   26258.11368056  .00053564  00000+0  19394-2 0  2580
2 56836  42.9988 114.0488 0001537 276.3572 175.9530 15.27563716    18

Sigue STARLINK-30142 en tiempo real con AllMySat

Download on the App Store